Home   Weather   Preveza   Past weeks

Flag for Greece Past Weather in Preveza, Greece — Yesterday and Last 2 Weeks

Now
82 °F

Sunny.


Feels Like: 89 °F
Forecast: 73 / 88 °F
Wind: 10 mph from Northwest

Location: Aktion Airport

Current Time: Jul 23, 2017 at 7:58:02 pm

Latest Report: Jul 23, 2017 at 7:20 pm


Visibility: 10 mi

Pressure: 29.89 "Hg

Humidity: 79%

Dew Point: 75 °F

Location of PrevezaLocation

Past Weather in Preveza — Graph

°F

Preveza Temperature Yesterday

Maximum temperature yesterday: 90 °F (at 11:50 am)
Minimum temperature yesterday: 68 °F (at 5:50 am)
Average temperature yesterday: 80 °F

High & Low Weather Summary for the Past Weeks

 TemperatureHumidityPressure
High95 °F (Jul 12, 12:20 pm)100% (Jul 9, 3:50 am)30.07 "Hg (Jul 9, 3:50 am)
Low66 °F (Jul 9, 5:50 am)28% (Jul 23, 3:20 pm)29.68 "Hg (Jul 13, 5:50 pm)
Average80 °F71%29.87 "Hg
* Reported Jul 8 6:20 pm — Jul 23 6:20 pm, Preveza. Weather by CustomWeather, © 2017

Note: Actual official high and low records may vary slightly from our data, if they occured in-between our weather recording intervals... More about our weather records

Advertising

Preveza Weather History for the Previous 24 Hours

Scroll right to see more
 ConditionsComfort  
Time TempWeatherWind HumidityBarometerVisibility
6:20 pm
Sun, Jul 23
86 °FSunny.12 mph70%29.89 "Hg10 mi
5:50 pm88 °FSunny.13 mph62%29.89 "Hg10 mi
5:20 pm88 °FSunny.13 mph62%29.89 "Hg10 mi
4:50 pm88 °FSunny.14 mph62%29.89 "Hg10 mi
4:20 pm90 °FSunny.12 mph55%29.89 "Hg10 mi
3:50 pm90 °FSunny.13 mph43%29.89 "Hg10 mi
3:20 pm93 °FSunny.9 mph28%29.92 "Hg10 mi
2:50 pm91 °FSunny.7 mph30%29.92 "Hg10 mi
2:20 pm91 °FSunny.8 mph36%29.92 "Hg10 mi
1:50 pm91 °FSunny.8 mph36%29.95 "Hg10 mi
1:20 pm90 °FSunny.7 mph46%29.95 "Hg10 mi
12:50 pm90 °FSunny.7 mph46%29.95 "Hg10 mi
12:20 pm93 °FSunny.7 mph39%29.95 "Hg10 mi
11:50 am91 °FSunny.5 mph41%29.95 "Hg10 mi
11:20 am90 °FSunny.3 mph46%29.95 "Hg10 mi
10:20 am84 °FSunny.3 mph66%29.95 "Hg10 mi
9:20 am81 °FSunny.8 mph74%29.95 "Hg10 mi
8:20 am77 °FPassing clouds.6 mph83%29.95 "HgN/A
7:50 am77 °FPassing clouds.6 mph89%29.95 "HgN/A
7:20 am73 °FPassing clouds.8 mph100%29.95 "HgN/A
6:50 am70 °FPassing clouds.5 mph100%29.98 "HgN/A
6:20 am70 °FPassing clouds.No wind100%29.98 "HgN/A
5:50 am70 °FPassing clouds.No wind100%29.98 "HgN/A
4:50 am72 °FPassing clouds.No wind100%29.98 "HgN/A
3:50 am72 °FPassing clouds.No wind100%29.98 "HgN/A
2:50 am72 °FPassing clouds.No wind100%29.98 "HgN/A
1:50 am72 °FPassing clouds.No wind88%29.98 "HgN/A
12:50 am73 °FPassing clouds.No wind94%30.01 "HgN/A
11:50 pm
Sat, Jul 22
79 °FPassing clouds.7 mph74%30.01 "HgN/A
10:50 pm79 °FPassing clouds.6 mph70%30.01 "HgN/A
9:50 pm79 °FPassing clouds.8 mph70%29.98 "HgN/A
8:50 pm79 °FPassing clouds.10 mph79%29.98 "HgN/A
8:20 pm81 °FPassing clouds.12 mph70%29.95 "HgN/A
7:50 pm82 °FPassing clouds.12 mph66%29.95 "HgN/A
7:20 pm84 °FPassing clouds.13 mph58%29.95 "HgN/A
Weather by CustomWeather, © 2017

See weather overviewHow to use our weather pages